www.pogodaiklimat.ru

Погода и климат >> Архив погоды >> Россия >> Калмыкия >> Комсомольский


ПОГОДА в Комсомольском

  • Прогноз погоды в Комсомольском
  • Монитор погоды в Комсомольском

АРХИВ ПОГОДЫ в Комсомольском

Время (UTC), дата Ветер
(напр.,м/с)
 
Видим.   Явления Облачность Т
(С)
Тd
(С)
f
(%)
Тe
(С)
Тes
(С)
Комфортность P
(гПа)
Po
(гПа)
Тmin
(С)
Tmax
(С)
R
(мм)
R24
(мм)
S
(см)
12 16.08 ЮВ 6-12
{14}
10 км пыльный позёмок ясно +31.9 +8.0 23 +31 +34 жарко 1008.8 1009.2
15 16.08 ЮВ 5-11
{14}
10 км пыльный позёмок ясно +28.9 +7.8 27 +28 +29 жарко 1007.9 1008.3 +32.4
18 16.08 В 2
{11}
20 км ясно +23.3 +13.5 54 +27 +27 душно 1009.4 1009.8
21 16.08 В 3 20 км 1/0
[Ci fib]
+20.6 +15.5 73 +24 +24 комфорт 1008.5 1008.8
00 17.08 В 3 20 км 1/0
[Ci fib]
+20.8 +15.8 73 +24 +24 комфорт 1008.0 1008.4
03 17.08 В 3 20 км 5/3 600 м
[Sc Ac trans Ci fib]
+20.6 +15.7 73 +24 +24 комфорт 1008.0 1008.4 +19.2
06 17.08 ЮВ 3 20 км 9/9 300 м
[Cb cap]
+27.7 +11.4 36 +29 +29 жарко 1009.1 1009.5
09 17.08 ЮВ 3 20 км 8/8 600 м
[Sc Ac trans]
+30.7 +14.0 36 +32 +35 жарко 1008.8 1009.2
12 17.08 ЮВ 5-12
{12}
20 км 4/0
[Ac trans Ci fib]
+33.0 +9.9 24 +32 +36 жарко 1008.6 1009.0
15 17.08 ЮВ 4
{12}
20 км 4/3 600 м
[Sc Ac trans]
+30.4 +11.6 31 +31 +31 жарко 1009.4 1009.8 +33.1
18 17.08 В 2 20 км в посл. час гроза 6/4 300 м
[Cb cap Ac trans]
+25.4 +16.0 56 +29 +29 душно 1011.3 1011.7
21 17.08 ЮВ 6 20 км 8/6 600 м
[Sc Ac trans]
+23.6 +16.9 66 +27 +27 жарко 1009.1 1009.5
00 18.08 СЗ 1 н/о н/о +22.4 +16.5 69 +27 +27 душно 1010.0 1010.4
03 18.08 В 2 20 км {ливн. осадки} 6/3 600 м
[Sc Ac trans Ci fib]
+22.3 +15.1 64 +26 +26 жарко 1009.5 1009.9 +21.5 0.0
06 18.08 В 1 20 км {ливн. осадки} 10/10 600 м
[Sc Ac und Ci fib]
+27.6 +12.2 38 +29 +29 жарко 1010.0 1010.4
09 18.08 ЮВ 7-15
{15}
10 км пыльный позёмок ясно +34.8 +6.6 18 +33 +37 жарко 1008.5 1008.8
12 18.08 ЮВ 8-17
{18}
2000 м пыльная буря {метель} 8/0
[Ac trans Ci]
+34.3 +4.1 15 +32 +32 жарко 1008.3 1008.7
15 18.08 ЮВ 7-13
{17}
10 км пыльный позёмок 10/10 600 м
[Sc Ac und]
+29.8 +10.8 31 +30 +30 жарко 1008.7 1009.0 +35.7
18 18.08 В 4
{14}
20 км {метель} 3/0
[Ac und]
+25.5 +13.9 49 +28 +28 жарко 1010.7 1011.1
21 18.08 В 5 20 км 9/6 600 м
[Sc Ac und Ci fib]
+24.2 +16.1 61 +28 +28 душно 1010.2 1010.6
00 19.08 ЮВ 4
{11}
20 км 10/0
[Ac und]
+24.2 +16.2 61 +28 +28 душно 1010.5 1010.8
03 19.08 ЮВ 3 20 км 4/0
[Ac und Ci fib]
+24.0 +16.8 64 +28 +28 душно 1012.4 1012.7 +23.7
06 19.08 ЮВ 2 20 км 6/0
[Ac und Ci]
+29.1 +15.1 43 +32 +37 душно 1013.1 1013.4
09 19.08 Ю 6-12
{13}
10 км пыльный позёмок 9/4 600 м
[Sc Ac und Ci]
+35.6 +6.8 17 +33 +35 жарко 1012.9 1013.2
12 19.08 ЮВ 5-11
{12}
20 км 9/0
[Ac und Ci]
+36.5 +5.7 15 +34 +36 очень
жарко
1013.2 1013.6
15 19.08 ЮВ 5
{12}
20 км 1/0
[Ci fib]
+33.1 +10.8 26 +33 +33 жарко 1014.3 1014.7 +37.5
18 19.08 В 3 20 км ясно +25.5 +16.9 59 +29 +29 душно 1016.1 1016.5
21 19.08 В 3 20 км ясно +22.1 +18.1 78 +27 +27 душно 1016.0 1016.4
00 20.08 В 3 20 км ясно +21.1 +17.7 81 +25 +25 комфорт 1015.7 1016.1
03 20.08 В 2 20 км ясно +20.9 +14.8 68 +25 +25 комфорт 1016.2 1016.6 +20.5
06 20.08 ЮВ 5-10
{10}
20 км 1/0
[Ci fib]
+32.8 +6.2 19 +31 +36 жарко 1016.8 1017.2
09 20.08 ЮВ 6-12
{14}
10 км пыльный позёмок ясно +37.4 +4.0 13 +34 +40 очень
жарко
1016.0 1016.4
12 20.08 ЮВ 6-12
{14}
10 км пыльный позёмок 3/0
[Ci fib]
+36.7 +4.9 14 +34 +37 очень
жарко
1015.2 1015.6
15 20.08 ЮВ 5
{13}
10 км пыльный позёмок 1/0
[Ci fib]
+32.3 +7.0 21 +31 +31 жарко 1015.8 1016.2 +37.9
18 20.08 В 3 20 км ясно +25.3 +10.8 40 +26 +26 жарко 1016.8 1017.2
21 20.08 В 3 20 км ясно +22.4 +16.8 71 +27 +27 душно 1016.0 1016.4
00 21.08 В 2 20 км ясно +20.7 +17.1 80 +25 +25 комфорт 1015.7 1016.1
03 21.08 СВ 1 20 км ясно +18.9 +15.3 80 +21 +22 комфорт 1016.0 1016.4 +18.0
06 21.08 ЮВ 2 20 км 1/0
[Ci fib]
+30.5 +13.9 36 +32 +41 жарко 1015.8 1016.2
09 21.08 ЮВ 4 20 км ясно +36.8 +4.2 13 +34 +44 очень
жарко
1014.3 1014.6
12 21.08 ЮВ 4
{12}
20 км 1/0
[Ac trans]
+38.1 +1.8 10 +35 +40 очень
жарко
1012.8 1013.2
15 21.08 В 3
{11}
20 км ясно +35.1 +2.4 13 +32 +32 жарко 1012.7 1013.1 +38.4
18 21.08 В 3 20 км ясно +27.2 +5.8 26 +26 +26 жарко 1013.3 1013.7
21 21.08 В 2 20 км ясно +23.3 +17.0 68 +28 +28 душно 1012.9 1013.3
00 22.08 В 2 20 км ясно +20.5 +15.9 75 +24 +24 комфорт 1012.4 1012.8
03 22.08 СВ 2 20 км ясно +18.9 +16.1 84 +21 +21 комфорт 1013.0 1013.3 +18.6
06 22.08 В 2 20 км ясно +31.8 +12.4 31 +32 +41 жарко 1012.8 1013.2
09 22.08 В 3 20 км ясно +37.8 +2.2 11 +34 +47 очень
жарко
1011.6 1011.9
12 22.08 ЮВ 5
{11}
20 км ясно +37.2 +6.3 15 +35 +39 очень
жарко
1011.2 1011.5
15 22.08 В 3
{10}
20 км ясно +34.7 +8.5 20 +33 +33 жарко 1011.3 1011.6 +38.5
18 22.08 В 3 20 км ясно +27.3 +14.9 47 +30 +30 душно 1012.5 1012.9
21 22.08 В 3 н/о н/о +23.3 +19.0 77 +30 +30 очень
душно
1012.3 1012.7
00 23.08 20 км ясно +22.0 +18.0 78 1011.9 1012.3
03 23.08 В 3 20 км 3/0
[Ac trans]
+22.3 +17.0 72 +27 +27 душно 1012.7 1013.0 +21.0
06 23.08 В 5 20 км 3/0
[Ac trans]
+32.9 +11.7 27 +33 +37 жарко 1012.5 1012.8
09 23.08 ЮВ 4 20 км 6/5 600 м
[Sc diur, vesp Ac trans]
+39.3 +6.8 14 +37 +41 очень
жарко
1011.4 1011.7

 

Местоположение метеостанции Комсомольский (Калмыкия, Россия): широта 45.35 долгота 46.03 высота над уровнем моря -2 м.

В архиве по умолчанию представлена погода в Комсомольском за последнюю неделю. Архивные данные за месяц целиком и за предыдущие месяцы, начиная с января 2011 года, Вы можете получить, выбрав интересующий диапазон дат из раскрывающегося списка и нажав кнопку "Ввод!".


*Определитесь, кто Вы:
робот инопланетянин человек

Внимание! Время в таблицах - всемирное. Для получения местного времени необходимо прибавить поправку, которая равна 3 ч.

Смотрите также архив погоды в соседних городах и на ближайших метеорологических станциях:

Погода в Артезиане (Калмыкия, Россия) (70 км)
Погода в Южно-Сухокумске (Дагестан, Россия) (83 км)
Погода в Лагани (Калмыкия, Россия) (103 км)
Погода в Лимане (Астраханская область, Россия) (105 км)
Погода в Яшкуле (Калмыкия, Россия) (106 км)
Погода в Кочубее (Дагестан, Россия) (113 км)
Погода в Утте (Калмыкия, Россия) (113 км)
Погода в Ики-Буруле (Калмыкия, Россия) (120 км)
Погода в Терекли-Мектебе (Дагестан, Россия) (136 км)
Погода в Арзгире (Ставропольский край, Россия) (143 км)

Пояснения к столбцам:

Ветер - указаны скорость ветра в м/с - средняя за 10 мин, порывы в срок и между сроками (в фигурных скобках) и направление, откуда дует ветер: С - северный, СВ - северо-восточный, В - восточный, ЮВ - юго-восточный, Ю - южный, ЮЗ - юго-западный, З - западный, СЗ - северо-западный.
Видимость - горизонтальная дальность видимости в метрах или километрах. При видимости от 1 до 10 км при отсутствии осадков обычно наблюдается дымка, при ухудшении видимости до 1 км и менее - туман. В сухую погоду видимость может ухудшаться дымом, пылью или мглою.
Явления - указаны атмосферные явления, наблюдавшиеся в срок или в последний час перед сроком; фигурными скобками обозначены явления, наблюдавшиеся между сроками (за 1-3 часа до срока); квадратными скобками обозначены град или гололедные отложения с указанием их диаметра в мм.
Облачность - указаны через наклонную черту общая и нижняя облачность в баллах и высота нижней границы облаков в метрах; квадратными скобками обозначены формы облаков: Ci - перистые, Cs - перисто-слоистые, Cc - перисто-кучевые, Ac - высококучевые, As - высокослоистые, Sc - слоисто-кучевые, Ns - слоисто-дождевые, Cu - кучевые, Cb - кучево-дождевые. Подробнее классификацию облаков см. в Атласе облаков (PDF).
T - Температура воздуха - температура, измеренная на высоте 2 м над землей.
Td - Температура точки росы - температура, при понижении до которой содержащийся в воздухе водяной пар достигнет насыщения.
f - Относительная влажность воздуха - влажноcть воздуха, измеренная на высоте 2 м над землей.
Te - Эффективная температура - температура, которую ощущает одетый по сезону человек в тени. Характеристика душности погоды. При расчете учитывается влияние влажности воздуха и скорости ветра на теплоощущения человека.
Tes - Эффективная температура на солнце - температура, которую ощущает человек, с поправкой на солнечный нагрев. Характеристика знойности погоды. Зависит от высоты солнца над горизонтом, облачности и скорости ветра. Ночью, в пасмурную погоду, а также при ветре 12 м/с и более поправка равна нулю.
P - Атмосферное давление - приведенное к уровню моря атмосферное давление.
Po - Атмосферное давление - измеренное на уровне метеостанции атмосферное давление.
Tmin - Минимальная температура - минимум температуры воздуха на высоте 2 м над землей.
Tmax - Максимальная температура - максимум температуры воздуха на высоте 2 м над землей.
R - Количество осадков - Количество выпавших осадков за период времени, мм. При наведении курсора мыши на число - период времени, за который выпало указанное количество осадков.
R24 - Количество осадков - Количество выпавших осадков за 24 часа, мм.
S - Снежный покров - Высота снежного покрова, см. При наведении курсора мыши на число - состояние снежного покрова и степень покрытия местности в баллах.